�������l�o���
Date,Time,MP-1(��Sv/h),MP-2(��Sv/h),MP-3(��Sv/h),MP-4(��Sv/h),MP-5(��Sv/h),MP-6(��Sv/h),MP-7(��Sv/h),MP-8(��Sv/h),����,����(m/s),���J
2021/07/06,00:00,0.599,0.874,0.568,1.066,0.759,0.364,0.629,0.590,��,5.8,��
2021/07/06,00:10,0.597,0.877,0.567,1.066,0.759,0.364,0.628,0.590,��,6.5,��
2021/07/06,00:20,0.598,0.874,0.567,1.065,0.759,0.364,0.628,0.589,��,7.1,��
2021/07/06,00:30,0.599,0.875,0.568,1.066,0.758,0.364,0.629,0.591,��,7.4,��
2021/07/06,00:40,0.600,0.876,0.568,1.067,0.760,0.365,0.629,0.589,��,8.4,��
2021/07/06,00:50,0.598,0.875,0.568,1.067,0.758,0.365,0.629,0.589,��,8.6,��
2021/07/06,01:00,0.597,0.875,0.567,1.067,0.761,0.364,0.630,0.588,��,10.5,��
2021/07/06,01:10,0.598,0.875,0.567,1.067,0.758,0.364,0.629,0.589,��,11.0,��
2021/07/06,01:20,0.596,0.875,0.566,1.065,0.759,0.364,0.631,0.588,���k��,11.9,��
2021/07/06,01:30,0.599,0.875,0.568,1.067,0.757,0.364,0.631,0.589,��,11.6,��
2021/07/06,01:40,0.599,0.876,0.566,1.068,0.758,0.364,0.628,0.589,��,9.3,��
2021/07/06,01:50,0.598,0.874,0.566,1.067,0.757,0.366,0.629,0.586,���k��,9.6,��
2021/07/06,02:00,0.597,0.876,0.565,1.067,0.759,0.364,0.631,0.589,���k��,7.8,��
2021/07/06,02:10,0.596,0.877,0.567,1.068,0.759,0.364,0.630,0.588,��,8.9,��
2021/07/06,02:20,0.598,0.876,0.567,1.068,0.759,0.364,0.629,0.590,���k��,8.7,��
2021/07/06,02:30,0.597,0.877,0.568,1.068,0.759,0.364,0.629,0.590,���k��,9.6,��
2021/07/06,02:40,0.598,0.875,0.566,1.070,0.759,0.363,0.630,0.589,��,9.2,��
2021/07/06,02:50,0.598,0.876,0.567,1.070,0.760,0.364,0.628,0.591,��,8.3,��
2021/07/06,03:00,0.598,0.874,0.567,1.068,0.759,0.363,0.631,0.590,��,7.3,��
2021/07/06,03:10,0.599,0.877,0.566,1.070,0.760,0.364,0.631,0.591,��,5.9,��
2021/07/06,03:20,0.597,0.876,0.568,1.067,0.760,0.365,0.630,0.590,��,6.8,��
2021/07/06,03:30,0.599,0.878,0.567,1.068,0.760,0.366,0.631,0.589,��,6.7,��
2021/07/06,03:40,0.599,0.876,0.567,1.068,0.759,0.365,0.631,0.590,��,6.8,��
2021/07/06,03:50,0.599,0.876,0.567,1.068,0.760,0.365,0.631,0.589,��,6.1,��
2021/07/06,04:00,0.600,0.877,0.568,1.068,0.761,0.364,0.632,0.592,��,6.8,��
2021/07/06,04:10,0.598,0.878,0.569,1.070,0.760,0.364,0.632,0.590,��,6.7,��
2021/07/06,04:20,0.600,0.877,0.568,1.069,0.761,0.364,0.632,0.590,��,6.1,��
2021/07/06,04:30,0.599,0.877,0.569,1.071,0.759,0.365,0.633,0.591,��,6.2,��
2021/07/06,04:40,0.600,0.876,0.568,1.070,0.760,0.365,0.631,0.591,��,6.0,��
2021/07/06,04:50,0.599,0.876,0.566,1.070,0.760,0.365,0.630,0.589,���쐼,1.5,��
2021/07/06,05:00,0.601,0.876,0.567,1.071,0.758,0.366,0.631,0.591,-,CALM,��
2021/07/06,05:10,0.600,0.877,0.567,1.073,0.759,0.364,0.630,0.590,���쓌,1.7,��
2021/07/06,05:20,0.600,0.875,0.567,1.071,0.759,0.364,0.632,0.591,��,2.3,��
2021/07/06,05:30,0.599,0.875,0.570,1.071,0.762,0.364,0.633,0.589,���k��,2.3,��
2021/07/06,05:40,0.599,0.877,0.568,1.070,0.760,0.366,0.631,0.592,�k�k��,1.5,��
2021/07/06,05:50,0.598,0.877,0.569,1.069,0.760,0.365,0.631,0.590,���k��,1.7,��
2021/07/06,06:00,0.599,0.876,0.568,1.071,0.761,0.364,0.630,0.591,���k��,1.7,��
2021/07/06,06:10,0.598,0.878,0.568,1.072,0.760,0.364,0.633,0.591,�k��,2.8,��
2021/07/06,06:20,0.600,0.877,0.567,1.071,0.760,0.364,0.631,0.592,�k��,3.3,��
2021/07/06,06:30,0.598,0.875,0.569,1.071,0.761,0.366,0.631,0.590,���k��,5.3,��
2021/07/06,06:40,0.599,0.874,0.568,1.072,0.761,0.365,0.632,0.591,�k��,6.7,��
2021/07/06,06:50,0.601,0.877,0.566,1.070,0.760,0.365,0.632,0.591,�k��,3.9,��
2021/07/06,07:00,0.600,0.877,0.570,1.072,0.760,0.365,0.631,0.590,�k��,4.1,��
2021/07/06,07:10,0.598,0.876,0.566,1.070,0.762,0.365,0.631,0.592,�k,3.0,��
2021/07/06,07:20,0.599,0.876,0.569,1.071,0.761,0.366,0.630,0.589,�k�k��,2.8,��
2021/07/06,07:30,0.598,0.875,0.566,1.072,0.759,0.365,0.631,0.590,�k��,2.6,��
2021/07/06,07:40,0.599,0.877,0.569,1.073,0.760,0.365,0.629,0.590,���k��,3.4,��
2021/07/06,07:50,0.600,0.877,0.567,1.072,0.761,0.365,0.632,0.590,��,1.9,��
2021/07/06,08:00,0.600,0.878,0.567,1.073,0.762,0.365,0.630,0.589,���쓌,1.9,��
2021/07/06,08:10,0.598,0.878,0.568,1.071,0.761,0.366,0.631,0.589,���k��,1.2,��
2021/07/06,08:20,0.599,0.878,0.569,1.070,0.761,0.365,0.632,0.589,���k��,1.7,��
2021/07/06,08:30,0.600,0.877,0.568,1.073,0.762,0.366,0.631,0.589,���k��,1.7,��
2021/07/06,08:40,0.598,0.880,0.568,1.071,0.761,0.365,0.632,0.590,���k��,1.7,��
2021/07/06,08:50,0.600,0.877,0.567,1.072,0.762,0.366,0.630,0.590,��,3.2,��
2021/07/06,09:00,0.601,0.880,0.570,1.071,0.764,0.364,0.631,0.590,��,3.0,��
2021/07/06,09:10,0.600,0.879,0.569,1.071,0.762,0.365,0.631,0.590,�쓌,2.6,��
2021/07/06,09:20,0.602,0.878,0.569,1.073,0.763,0.365,0.631,0.589,�쓌,2.3,��
2021/07/06,09:30,0.602,0.878,0.568,1.074,0.763,0.364,0.631,0.590,�쓌,3.1,��
2021/07/06,09:40,0.601,0.880,0.569,1.075,0.764,0.365,0.632,0.590,�쓌,2.6,��
2021/07/06,09:50,0.600,0.877,0.568,1.074,0.765,0.366,0.631,0.589,���쓌,3.6,��
2021/07/06,10:00,0.603,0.879,0.569,1.074,0.764,0.365,0.632,0.590,���쓌,2.6,��
2021/07/06,10:10,0.600,0.879,0.570,1.075,0.765,0.366,0.632,0.591,���쓌,2.6,��
2021/07/06,10:20,0.602,0.879,0.569,1.075,0.768,0.366,0.633,0.590,���쓌,4.1,��
2021/07/06,10:30,0.602,0.880,0.570,1.075,0.767,0.366,0.633,0.590,���쓌,3.4,��
2021/07/06,10:40,0.601,0.883,0.569,1.076,0.766,0.366,0.633,0.590,���쓌,1.5,��
2021/07/06,10:50,0.603,0.882,0.569,1.075,0.766,0.365,0.633,0.589,�k�k��,1.4,��
2021/07/06,11:00,0.602,0.880,0.569,1.076,0.768,0.365,0.632,0.589,�k��,1.5,��
2021/07/06,11:10,0.604,0.881,0.570,1.076,0.767,0.366,0.632,0.589,�k�k��,1.9,��
2021/07/06,11:20,0.603,0.882,0.571,1.076,0.765,0.366,0.633,0.590,�k��,1.5,��
2021/07/06,11:30,0.601,0.880,0.570,1.076,0.767,0.366,0.632,0.591,���k��,3.4,��
2021/07/06,11:40,0.603,0.882,0.569,1.077,0.767,0.365,0.631,0.590,��,3.0,��
2021/07/06,11:50,0.604,0.883,0.567,1.077,0.768,0.365,0.633,0.590,��,2.6,��
2021/07/06,12:00,0.603,0.882,0.569,1.078,0.766,0.367,0.633,0.591,���k��,3.0,��
2021/07/06,12:10,0.601,0.885,0.570,1.074,0.768,0.366,0.633,0.590,��,3.0,��
2021/07/06,12:20,0.602,0.883,0.570,1.075,0.769,0.365,0.632,0.591,�k�k��,0.9,��
2021/07/06,12:30,0.604,0.885,0.572,1.074,0.768,0.365,0.635,0.590,-,CALM,��
2021/07/06,12:40,0.605,0.882,0.571,1.076,0.770,0.366,0.635,0.592,-,CALM,��
2021/07/06,12:50,0.605,0.885,0.570,1.075,0.769,0.367,0.634,0.590,�k�k��,0.9,��
2021/07/06,13:00,0.604,0.886,0.571,1.075,0.771,0.366,0.633,0.592,�k��,2.9,��
2021/07/06,13:10,0.604,0.886,0.572,1.076,0.771,0.366,0.634,0.591,�k��,3.3,��
2021/07/06,13:20,0.605,0.885,0.573,1.077,0.769,0.366,0.633,0.590,�k��,2.5,��
2021/07/06,13:30,0.602,0.885,0.572,1.074,0.771,0.367,0.635,0.591,���k��,2.5,��
2021/07/06,13:40,0.603,0.884,0.572,1.076,0.770,0.368,0.635,0.591,���k��,2.5,��
2021/07/06,13:50,0.604,0.886,0.573,1.078,0.771,0.366,0.634,0.592,��,2.9,��
2021/07/06,14:00,0.604,0.883,0.570,1.077,0.771,0.367,0.633,0.591,��,2.0,��
2021/07/06,14:10,0.605,0.886,0.571,1.080,0.773,0.366,0.635,0.591,�k��,1.5,��
2021/07/06,14:20,0.602,0.885,0.572,1.079,0.771,0.365,0.634,0.593,�k��,1.2,��
2021/07/06,14:30,0.604,0.885,0.571,1.077,0.771,0.366,0.635,0.592,�k��,0.6,��
2021/07/06,14:40,0.604,0.887,0.572,1.079,0.771,0.367,0.632,0.592,�k��,0.6,��
2021/07/06,14:50,0.606,0.885,0.571,1.078,0.771,0.367,0.635,0.592,��,1.5,��
2021/07/06,15:00,0.604,0.884,0.572,1.078,0.770,0.368,0.632,0.590,�k��,1.7,��
2021/07/06,15:10,0.604,0.887,0.572,1.078,0.772,0.368,0.633,0.592,�k�k��,2.3,��
2021/07/06,15:20,0.604,0.887,0.571,1.081,0.770,0.366,0.634,0.592,�k�k��,2.6,��
2021/07/06,15:30,0.605,0.887,0.573,1.079,0.771,0.367,0.633,0.592,�k��,3.0,��
2021/07/06,15:40,0.605,0.888,0.571,1.075,0.771,0.367,0.635,0.591,�k��,3.1,��
2021/07/06,15:50,0.604,0.890,0.572,1.078,0.773,0.366,0.634,0.592,�k�k��,3.6,��
2021/07/06,16:00,0.606,0.890,0.574,1.080,0.772,0.366,0.634,0.590,�k��,3.4,��
2021/07/06,16:10,0.604,0.889,0.574,1.080,0.775,0.366,0.634,0.591,���k��,2.5,��
2021/07/06,16:20,0.606,0.890,0.572,1.081,0.774,0.367,0.635,0.593,�k��,2.6,��
2021/07/06,16:30,0.605,0.892,0.575,1.083,0.772,0.368,0.634,0.593,�k,3.1,��
2021/07/06,16:40,0.606,0.892,0.574,1.082,0.773,0.367,0.633,0.593,�k,2.8,��
2021/07/06,16:50,0.605,0.892,0.573,1.082,0.774,0.368,0.635,0.594,�k�k��,2.8,��
2021/07/06,17:00,0.606,0.894,0.574,1.083,0.774,0.368,0.636,0.594,�k�k��,3.7,��
2021/07/06,17:10,0.605,0.890,0.573,1.081,0.774,0.368,0.635,0.594,�k�k��,2.6,��
2021/07/06,17:20,0.604,0.889,0.573,1.081,0.774,0.368,0.635,0.593,�k��,3.2,��
2021/07/06,17:30,0.603,0.892,0.576,1.082,0.774,0.368,0.635,0.594,�k��,1.5,��
2021/07/06,17:40,0.605,0.889,0.573,1.082,0.774,0.367,0.635,0.593,���k��,0.6,��
2021/07/06,17:50,0.604,0.889,0.573,1.081,0.774,0.368,0.634,0.594,���k��,2.0,��
2021/07/06,18:00,0.606,0.891,0.573,1.081,0.775,0.367,0.636,0.594,���k��,2.0,��
2021/07/06,18:10,0.606,0.892,0.573,1.082,0.774,0.368,0.636,0.594,���k��,1.2,��
2021/07/06,18:20,0.606,0.893,0.575,1.081,0.775,0.369,0.635,0.593,��,0.9,��
2021/07/06,18:30,0.603,0.891,0.573,1.081,0.774,0.368,0.635,0.593,���k��,1.5,��
2021/07/06,18:40,0.605,0.892,0.574,1.083,0.773,0.367,0.635,0.595,-,CALM,��
2021/07/06,18:50,0.605,0.892,0.573,1.083,0.773,0.368,0.633,0.594,���k��,1.2,��
2021/07/06,19:00,0.605,0.892,0.574,1.083,0.775,0.368,0.633,0.594,��,2.0,��
2021/07/06,19:10,0.606,0.892,0.573,1.079,0.775,0.367,0.634,0.594,���k��,0.9,��
2021/07/06,19:20,0.606,0.895,0.575,1.082,0.774,0.367,0.634,0.593,��,1.7,��
2021/07/06,19:30,0.607,0.891,0.574,1.084,0.775,0.369,0.634,0.594,��쐼,1.1,��
2021/07/06,19:40,0.606,0.893,0.573,1.084,0.773,0.367,0.634,0.593,�쐼,1.1,��
2021/07/06,19:50,0.608,0.891,0.575,1.081,0.772,0.366,0.636,0.595,���쐼,0.9,��
2021/07/06,20:00,0.604,0.893,0.573,1.082,0.775,0.367,0.634,0.594,��,0.9,��
2021/07/06,20:10,0.608,0.892,0.575,1.083,0.772,0.367,0.635,0.593,��쐼,0.8,��
2021/07/06,20:20,0.606,0.892,0.575,1.082,0.773,0.368,0.635,0.593,��,1.5,��
2021/07/06,20:30,0.605,0.892,0.573,1.082,0.775,0.368,0.634,0.593,�쐼,1.5,��
2021/07/06,20:40,0.607,0.893,0.574,1.081,0.775,0.366,0.636,0.593,�쐼,2.3,��
2021/07/06,20:50,0.607,0.890,0.575,1.082,0.772,0.366,0.633,0.593,�쐼,1.1,��
2021/07/06,21:00,0.605,0.891,0.574,1.082,0.774,0.367,0.635,0.594,��쐼,2.0,��
2021/07/06,21:10,0.607,0.894,0.575,1.083,0.774,0.368,0.635,0.593,�쐼,2.0,�L
2021/07/06,21:20,0.604,0.893,0.575,1.082,0.775,0.367,0.635,0.595,���쐼,1.7,�L
2021/07/06,21:30,0.608,0.892,0.575,1.083,0.774,0.368,0.636,0.594,���쐼,1.7,��
2021/07/06,21:40,0.604,0.891,0.575,1.083,0.775,0.367,0.635,0.593,�쐼,2.0,��
2021/07/06,21:50,0.606,0.892,0.574,1.081,0.774,0.367,0.635,0.594,��쓌,1.5,��
2021/07/06,22:00,0.606,0.894,0.574,1.081,0.774,0.368,0.635,0.593,��쐼,2.3,�L
2021/07/06,22:10,0.606,0.893,0.574,1.083,0.775,0.369,0.635,0.594,��쐼,4.3,�L
2021/07/06,22:20,0.606,0.892,0.574,1.083,0.776,0.369,0.634,0.595,�쐼,5.7,�L
2021/07/06,22:30,0.606,0.892,0.574,1.084,0.773,0.369,0.633,0.593,���쐼,5.5,�L
2021/07/06,22:40,0.605,0.889,0.575,1.081,0.772,0.366,0.634,0.591,���쐼,5.2,�L
2021/07/06,22:50,0.604,0.885,0.573,1.080,0.770,0.368,0.633,0.593,�쐼,3.4,�L
2021/07/06,23:00,0.602,0.887,0.573,1.080,0.768,0.366,0.634,0.592,�쐼,4.1,�L
2021/07/06,23:10,0.601,0.881,0.571,1.080,0.766,0.368,0.631,0.593,�쐼,5.3,�L
2021/07/06,23:20,0.599,0.879,0.570,1.077,0.763,0.367,0.633,0.591,�쐼,5.0,�L
2021/07/06,23:30,0.598,0.877,0.569,1.078,0.763,0.366,0.630,0.591,�쐼,4.2,�L
2021/07/06,23:40,0.597,0.876,0.570,1.073,0.759,0.364,0.628,0.589,��쐼,3.1,�L
2021/07/06,23:50,0.599,0.869,0.568,1.070,0.757,0.366,0.627,0.587,��쐼,2.8,�L
